Time,TemperatureF,DewpointF,PressureIn,WindDirection,WindDirectionDegrees,WindSpeedMPH,WindSpeedGustMPH,Humidity,HourlyPrecipIn,Conditions,Clouds,dailyrainin,SolarRadiationWatts/m^2,SoftwareType,DateUTC
2013-07-22 00:14:00,54.7,53.0,29.93,SSW,200,5.0,8.0,93,0.00,,,0.00,0,weatherlink.com 1.10,2013-07-22 07:14:00,
2013-07-22 00:29:00,54.9,53.0,29.93,SSW,202,1.0,7.0,93,0.00,,,0.00,0,weatherlink.com 1.10,2013-07-22 07:29:00,
2013-07-22 00:44:00,55.0,53.0,29.92,SSW,206,2.0,6.0,93,0.00,,,0.00,0,weatherlink.com 1.10,2013-07-22 07:44:00,
2013-07-22 00:59:00,55.0,53.0,29.93,SSW,211,4.0,9.0,93,0.00,,,0.00,0,weatherlink.com 1.10,2013-07-22 07:59:00,
2013-07-22 01:14:00,55.0,53.0,29.93,SW,218,6.0,12.0,93,0.00,,,0.00,0,weatherlink.com 1.10,2013-07-22 08:14:00,
2013-07-22 01:29:00,55.2,53.0,29.93,SW,227,7.0,10.0,93,0.00,,,0.00,0,weatherlink.com 1.10,2013-07-22 08:29:00,
2013-07-22 01:44:00,55.3,53.0,29.94,SSW,200,2.0,7.0,93,0.00,,,0.00,0,weatherlink.com 1.10,2013-07-22 08:44:00,
2013-07-22 01:59:00,55.5,54.0,29.93,SSW,198,6.0,7.0,93,0.00,,,0.00,0,weatherlink.com 1.10,2013-07-22 08:59:00,
2013-07-22 02:14:00,55.5,54.0,29.93,SSW,208,1.0,6.0,93,0.00,,,0.00,0,weatherlink.com 1.10,2013-07-22 09:14:00,
2013-07-22 02:29:00,55.5,54.0,29.93,West,268,3.0,9.0,93,0.00,,,0.00,0,weatherlink.com 1.10,2013-07-22 09:29:00,
2013-07-22 02:44:00,55.6,54.0,29.93,West,260,5.0,10.0,93,0.00,,,0.00,0,weatherlink.com 1.10,2013-07-22 09:44:00,
2013-07-22 02:59:00,55.7,54.0,29.93,West,270,4.0,9.0,93,0.00,,,0.00,0,weatherlink.com 1.10,2013-07-22 09:59:00,
2013-07-22 03:14:00,55.6,54.0,29.92,SSW,206,3.0,8.0,93,0.00,,,0.00,0,weatherlink.com 1.10,2013-07-22 10:14:00,
2013-07-22 03:29:00,55.6,54.0,29.92,WSW,248,4.0,9.0,94,0.00,,,0.00,0,weatherlink.com 1.10,2013-07-22 10:29:00,
2013-07-22 03:44:00,55.6,54.0,29.92,SSW,207,3.0,9.0,94,0.00,,,0.00,0,weatherlink.com 1.10,2013-07-22 10:44:00,
2013-07-22 03:59:00,55.8,54.0,29.93,SW,225,2.0,10.0,94,0.00,,,0.00,0,weatherlink.com 1.10,2013-07-22 10:59:00,
2013-07-22 04:14:00,55.8,54.0,29.93,West,274,2.0,11.0,94,0.00,,,0.00,0,weatherlink.com 1.10,2013-07-22 11:14:00,
2013-07-22 04:29:00,55.8,54.0,29.93,SW,234,3.0,10.0,94,0.00,,,0.00,0,weatherlink.com 1.10,2013-07-22 11:29:00,
2013-07-22 04:44:00,55.8,54.0,29.93,West,260,1.0,10.0,94,0.00,,,0.00,0,weatherlink.com 1.10,2013-07-22 11:44:00,
2013-07-22 04:59:00,55.9,54.0,29.93,WSW,254,6.0,9.0,94,0.00,,,0.00,0,weatherlink.com 1.10,2013-07-22 11:59:00,
2013-07-22 05:14:00,55.9,54.0,29.94,West,269,2.0,10.0,94,0.00,,,0.00,0,weatherlink.com 1.10,2013-07-22 12:14:00,
2013-07-22 05:29:00,55.9,54.0,29.94,SW,229,1.0,9.0,94,0.00,,,0.00,0,weatherlink.com 1.10,2013-07-22 12:29:00,
2013-07-22 05:44:00,56.0,54.0,29.95,SW,214,4.0,6.0,94,0.00,,,0.00,0,weatherlink.com 1.10,2013-07-22 12:44:00,
2013-07-22 05:59:00,56.1,54.0,29.95,SW,225,3.0,8.0,94,0.00,,,0.00,0,weatherlink.com 1.10,2013-07-22 12:59:00,
2013-07-22 06:14:00,56.2,55.0,29.96,SW,223,2.0,8.0,94,0.00,,,0.00,0,weatherlink.com 1.10,2013-07-22 13:14:00,
2013-07-22 06:30:00,56.3,55.0,29.96,SW,235,2.0,6.0,94,0.00,,,0.00,9,weatherlink.com 1.10,2013-07-22 13:30:00,
2013-07-22 06:45:00,56.4,55.0,29.97,SSW,192,1.0,7.0,93,0.00,,,0.00,11,weatherlink.com 1.10,2013-07-22 13:45:00,
2013-07-22 07:00:00,56.5,55.0,29.97,SSW,210,3.0,6.0,93,0.00,,,0.00,14,weatherlink.com 1.10,2013-07-22 14:00:00,
2013-07-22 07:15:00,56.7,55.0,29.97,WNW,292,1.0,6.0,93,0.00,,,0.00,26,weatherlink.com 1.10,2013-07-22 14:15:00,
2013-07-22 07:30:00,56.8,55.0,29.97,West,266,2.0,6.0,93,0.00,,,0.00,49,weatherlink.com 1.10,2013-07-22 14:30:00,
2013-07-22 07:45:00,57.2,55.0,29.98,West,269,0.0,5.0,93,0.00,,,0.00,51,weatherlink.com 1.10,2013-07-22 14:45:00,
2013-07-22 08:00:00,57.5,56.0,29.97,West,270,3.0,5.0,93,0.00,,,0.00,69,weatherlink.com 1.10,2013-07-22 15:00:00,
2013-07-22 08:15:00,57.6,55.0,29.97,West,265,2.0,4.0,92,0.00,,,0.00,69,weatherlink.com 1.10,2013-07-22 15:15:00,
2013-07-22 08:30:00,57.9,56.0,29.98,West,272,3.0,7.0,92,0.00,,,0.00,135,weatherlink.com 1.10,2013-07-22 15:30:00,
2013-07-22 08:45:00,58.2,56.0,29.98,SSW,213,0.0,9.0,92,0.00,,,0.00,237,weatherlink.com 1.10,2013-07-22 15:45:00,
2013-07-22 09:00:00,59.0,57.0,29.97,WSW,238,1.0,6.0,92,0.00,,,0.00,188,weatherlink.com 1.10,2013-07-22 16:00:00,
2013-07-22 09:15:00,59.6,57.0,29.98,WNW,284,3.0,7.0,90,0.00,,,0.00,279,weatherlink.com 1.10,2013-07-22 16:15:00,
2013-07-22 09:30:00,60.8,57.0,29.98,SW,230,5.0,6.0,88,0.00,,,0.00,390,weatherlink.com 1.10,2013-07-22 16:30:00,
2013-07-22 09:45:00,61.0,57.0,29.98,WSW,256,1.0,8.0,86,0.00,,,0.00,353,weatherlink.com 1.10,2013-07-22 16:45:00,
2013-07-22 10:00:00,61.8,57.0,29.98,West,274,5.0,8.0,85,0.00,,,0.00,499,weatherlink.com 1.10,2013-07-22 17:00:00,
2013-07-22 10:15:00,62.3,57.0,29.98,West,278,5.0,8.0,83,0.00,,,0.00,664,weatherlink.com 1.10,2013-07-22 17:15:00,
2013-07-22 10:30:00,62.4,57.0,29.98,West,276,1.0,8.0,82,0.00,,,0.00,341,weatherlink.com 1.10,2013-07-22 17:30:00,
2013-07-22 10:45:00,63.1,57.0,29.98,WSW,254,2.0,7.0,80,0.00,,,0.00,420,weatherlink.com 1.10,2013-07-22 17:45:00,
2013-07-22 11:00:00,63.9,57.0,29.98,SW,218,5.0,8.0,78,0.00,,,0.00,445,weatherlink.com 1.10,2013-07-22 18:00:00,
2013-07-22 11:15:00,63.0,57.0,29.98,WSW,258,7.0,10.0,80,0.00,,,0.00,621,weatherlink.com 1.10,2013-07-22 18:15:00,
2013-07-22 11:30:00,62.8,56.0,29.98,West,265,8.0,13.0,79,0.00,,,0.00,531,weatherlink.com 1.10,2013-07-22 18:30:00,
2013-07-22 11:45:00,62.9,57.0,29.98,WSW,243,3.0,12.0,80,0.00,,,0.00,687,weatherlink.com 1.10,2013-07-22 18:45:00,
2013-07-22 12:00:00,63.0,56.0,29.98,West,281,0.0,11.0,79,0.00,,,0.00,631,weatherlink.com 1.10,2013-07-22 19:00:00,
2013-07-22 12:15:00,63.9,57.0,29.98,West,261,2.0,10.0,79,0.00,,,0.00,800,weatherlink.com 1.10,2013-07-22 19:15:00,
2013-07-22 12:30:00,64.0,57.0,29.98,NW,318,7.0,12.0,78,0.00,,,0.00,671,weatherlink.com 1.10,2013-07-22 19:30:00,
2013-07-22 12:45:00,64.7,57.0,29.98,West,259,6.0,13.0,76,0.00,,,0.00,809,weatherlink.com 1.10,2013-07-22 19:45:00,
2013-07-22 13:01:00,66.2,58.0,29.98,WSW,248,8.0,10.0,75,0.00,,,0.00,809,weatherlink.com 1.10,2013-07-22 20:01:00,
2013-07-22 13:16:00,65.6,57.0,29.98,NW,311,1.0,12.0,74,0.00,,,0.00,554,weatherlink.com 1.10,2013-07-22 20:16:00,
2013-07-22 13:31:00,64.3,57.0,29.98,West,262,1.0,12.0,77,0.00,,,0.00,443,weatherlink.com 1.10,2013-07-22 20:31:00,
2013-07-22 13:46:00,63.8,57.0,29.97,WNW,282,1.0,12.0,78,0.00,,,0.00,533,weatherlink.com 1.10,2013-07-22 20:46:00,
2013-07-22 14:01:00,64.3,57.0,29.97,West,275,3.0,12.0,77,0.00,,,0.00,591,weatherlink.com 1.10,2013-07-22 21:01:00,
2013-07-22 14:16:00,65.0,57.0,29.97,SW,214,0.0,11.0,76,0.00,,,0.00,448,weatherlink.com 1.10,2013-07-22 21:16:00,
2013-07-22 14:31:00,64.9,57.0,29.97,SSW,198,6.0,9.0,75,0.00,,,0.00,380,weatherlink.com 1.10,2013-07-22 21:31:00,
2013-07-22 14:46:00,65.3,57.0,29.97,WSW,252,5.0,6.0,75,0.00,,,0.00,378,weatherlink.com 1.10,2013-07-22 21:46:00,
2013-07-22 15:01:00,65.2,57.0,29.97,NNW,331,5.0,7.0,74,0.00,,,0.00,517,weatherlink.com 1.10,2013-07-22 22:01:00,
2013-07-22 15:16:00,66.1,58.0,29.97,WSW,252,5.0,7.0,74,0.00,,,0.00,675,weatherlink.com 1.10,2013-07-22 22:16:00,
2013-07-22 15:31:00,67.1,58.0,29.96,West,266,1.0,6.0,72,0.00,,,0.00,436,weatherlink.com 1.10,2013-07-22 22:31:00,
2013-07-22 15:46:00,66.2,57.0,29.96,WNW,288,5.0,10.0,72,0.00,,,0.00,371,weatherlink.com 1.10,2013-07-22 22:46:00,
2013-07-22 16:01:00,65.2,57.0,29.95,SSW,192,1.0,9.0,74,0.00,,,0.00,374,weatherlink.com 1.10,2013-07-22 23:01:00,
2013-07-22 16:16:00,64.5,57.0,29.95,SSW,213,3.0,10.0,76,0.00,,,0.00,443,weatherlink.com 1.10,2013-07-22 23:16:00,
2013-07-22 16:31:00,63.4,56.0,29.96,West,274,3.0,10.0,78,0.00,,,0.00,267,weatherlink.com 1.10,2013-07-22 23:31:00,
2013-07-22 16:46:00,62.4,56.0,29.96,SW,236,8.0,12.0,79,0.00,,,0.00,162,weatherlink.com 1.10,2013-07-22 23:46:00,
2013-07-22 17:01:00,61.9,56.0,29.96,West,281,6.0,11.0,81,0.00,,,0.00,148,weatherlink.com 1.10,2013-07-23 00:01:00,
2013-07-22 17:16:00,61.4,56.0,29.96,WSW,254,3.0,10.0,82,0.00,,,0.00,97,weatherlink.com 1.10,2013-07-23 00:16:00,
2013-07-22 17:31:00,61.0,56.0,29.96,SSE,148,0.0,17.0,84,0.00,,,0.00,88,weatherlink.com 1.10,2013-07-23 00:31:00,
2013-07-22 17:46:00,60.7,56.0,29.97,SSW,204,4.0,9.0,84,0.00,,,0.00,84,weatherlink.com 1.10,2013-07-23 00:46:00,
2013-07-22 18:01:00,60.4,56.0,29.97,SSW,204,2.0,8.0,85,0.00,,,0.00,98,weatherlink.com 1.10,2013-07-23 01:01:00,
2013-07-22 18:16:00,60.6,56.0,29.98,NNW,345,0.0,8.0,86,0.00,,,0.00,118,weatherlink.com 1.10,2013-07-23 01:16:00,
2013-07-22 18:31:00,60.7,56.0,29.98,West,281,6.0,11.0,85,0.00,,,0.00,91,weatherlink.com 1.10,2013-07-23 01:31:00,
2013-07-22 18:46:00,60.4,56.0,29.99,West,260,0.0,8.0,86,0.00,,,0.00,53,weatherlink.com 1.10,2013-07-23 01:46:00,
2013-07-22 19:01:00,60.3,56.0,29.98,WSW,245,3.0,8.0,86,0.00,,,0.00,53,weatherlink.com 1.10,2013-07-23 02:01:00,
2013-07-22 19:16:00,60.3,56.0,29.98,West,279,0.0,9.0,86,0.00,,,0.00,37,weatherlink.com 1.10,2013-07-23 02:16:00,
2013-07-22 19:31:00,60.0,56.0,29.97,West,265,2.0,7.0,86,0.00,,,0.00,37,weatherlink.com 1.10,2013-07-23 02:31:00,
2013-07-22 19:46:00,59.6,56.0,29.97,WSW,241,6.0,7.0,86,0.00,,,0.00,18,weatherlink.com 1.10,2013-07-23 02:46:00,
2013-07-22 20:01:00,59.4,56.0,29.98,WSW,256,4.0,7.0,87,0.00,,,0.00,12,weatherlink.com 1.10,2013-07-23 03:01:00,
2013-07-22 20:16:00,59.0,56.0,29.97,WSW,249,4.0,15.0,88,0.00,,,0.00,5,weatherlink.com 1.10,2013-07-23 03:16:00,
2013-07-22 20:31:00,58.6,55.0,29.96,WNW,285,8.0,14.0,88,0.00,,,0.00,0,weatherlink.com 1.10,2013-07-23 03:31:00,
2013-07-22 20:46:00,58.1,55.0,29.97,West,264,8.0,13.0,89,0.00,,,0.00,0,weatherlink.com 1.10,2013-07-23 03:46:00,
2013-07-22 21:01:00,58.0,55.0,29.97,NW,316,3.0,13.0,90,0.00,,,0.00,0,weatherlink.com 1.10,2013-07-23 04:01:00,
2013-07-22 21:16:00,57.8,55.0,29.98,NW,316,4.0,11.0,90,0.00,,,0.00,0,weatherlink.com 1.10,2013-07-23 04:16:00,
2013-07-22 21:31:00,57.8,55.0,29.98,SW,231,0.0,10.0,90,0.00,,,0.00,0,weatherlink.com 1.10,2013-07-23 04:31:00,
2013-07-22 21:46:00,57.7,55.0,29.99,WSW,248,1.0,9.0,90,0.00,,,0.00,0,weatherlink.com 1.10,2013-07-23 04:46:00,
2013-07-22 22:01:00,57.7,55.0,30.00,WSW,254,3.0,5.0,90,0.00,,,0.00,0,weatherlink.com 1.10,2013-07-23 05:01:00,
2013-07-22 22:16:00,57.6,55.0,30.00,South,191,3.0,7.0,90,0.00,,,0.00,0,weatherlink.com 1.10,2013-07-23 05:16:00,
2013-07-22 22:31:00,57.4,55.0,30.00,WSW,247,3.0,10.0,91,0.00,,,0.00,0,weatherlink.com 1.10,2013-07-23 05:31:00,
2013-07-22 22:46:00,57.3,55.0,30.00,West,270,3.0,7.0,91,0.00,,,0.00,0,weatherlink.com 1.10,2013-07-23 05:46:00,
2013-07-22 23:01:00,57.3,55.0,29.99,SW,229,2.0,6.0,91,0.00,,,0.00,0,weatherlink.com 1.10,2013-07-23 06:01:00,
2013-07-22 23:16:00,57.1,55.0,29.98,NW,308,3.0,9.0,91,0.00,,,0.00,0,weatherlink.com 1.10,2013-07-23 06:16:00,
2013-07-22 23:31:00,56.9,54.0,29.98,NW,318,2.0,9.0,91,0.00,,,0.00,0,weatherlink.com 1.10,2013-07-23 06:31:00,
2013-07-22 23:46:00,56.9,55.0,29.99,West,275,0.0,5.0,92,0.00,,,0.00,0,weatherlink.com 1.10,2013-07-23 06:46:00,